This is the latest recevied weather packets stored in our database for station/object W6JCZ-13. If no packets are shown the sender has not sent any weather packets the latest 10 day(s).
| Time | Temp. | Humidity | Pressure | Rain* | Wind** | Luminosity | Snow |
|---|---|---|---|---|---|---|---|
| 1788403216 | 21.67° C | 55% | 1012.6 hPa | 0 mm | - | - | - |
| 1788402616 | 22.22° C | 54% | 1012.7 hPa | 0 mm | - | - | - |
| 1788402016 | 22.22° C | 53% | 1012.8 hPa | 0 mm | - | - | - |
| 1788401416 | 22.78° C | 53% | 1012.9 hPa | 0 mm | - | - | - |
| 1788400816 | 22.78° C | 52% | 1013 hPa | 0 mm | - | - | - |
| 1788400216 | 23.33° C | 52% | 1013 hPa | 0 mm | - | - | - |
| 1788399616 | 23.33° C | 53% | 1013 hPa | 0 mm | - | - | - |
| 1788399016 | 23.33° C | 52% | 1013.1 hPa | 0 mm | - | - | - |
| 1788398416 | 23.89° C | 52% | 1013.1 hPa | 0 mm | - | - | - |
| 1788397816 | 23.89° C | 51% | 1013.2 hPa | 0 mm | - | - | - |
| 1788397216 | 23.89° C | 51% | 1013.1 hPa | 0 mm | - | - | - |
| 1788396616 | 24.44° C | 52% | 1013.2 hPa | 0 mm | - | - | - |
| 1788396016 | 24.44° C | 49% | 1013.1 hPa | 0 mm | - | - | - |
| 1788395416 | 24.44° C | 49% | 1013.2 hPa | 0 mm | - | - | - |
| 1788394816 | 24.44° C | 49% | 1013.3 hPa | 0 mm | - | - | - |
| 1788394216 | 24.44° C | 51% | 1013.5 hPa | 0 mm | - | - | - |
| 1788393616 | 25° C | 52% | 1013.5 hPa | 0 mm | - | - | - |
| 1788393016 | 25° C | 48% | 1013.6 hPa | 0 mm | - | - | - |
| 1788392416 | 25° C | 46% | 1013.6 hPa | 0 mm | - | - | - |
| 1788391816 | 25° C | 45% | 1013.6 hPa | 0 mm | - | - | - |
| 1788391216 | 25° C | 45% | 1013.7 hPa | 0 mm | - | - | - |
| 1788390616 | 25° C | 46% | 1013.8 hPa | 0 mm | - | - | - |
| 1788390016 | 25° C | 48% | 1013.9 hPa | 0 mm | - | - | - |
| 1788389416 | 24.44° C | 51% | 1014.1 hPa | 0 mm | - | - | - |
| 1788388816 | 24.44° C | 52% | 1014 hPa | 0 mm | - | - | - |
* Rain latest hour (hover to see other rain measurements)
** Current wind speed in m/s (hover to see current wind gust speed)